GW6635 Weather Reports


time (UTC)temp
F
wind
direction
speed
knots
gust
knots
rain 1hr
in
rain 24hr
in
rain mn
in
humidity
%
barometer
mb
20260506024553 72 327 2.6 8.7 0.00 0.00 0.00 70 1007.7
20260506024050 72 325 3.5 11.3 0.00 0.00 0.00 69 1007.2
20260506023545 73 3 3.5 9.6 0.00 0.00 0.00 68 1007.2
20260506023043 74 12 2.6 8.7 0.00 0.00 0.00 67 1007.0
20260506022541 74 22 3.5 5.2 0.00 0.00 0.00 67 1006.9
20260506022038 74 306 1.7 3.5 0.00 0.00 0.00 66 1006.8
20260506021535 74 48 1.7 3.5 0.00 0.00 0.00 66 1006.6
20260506021033 74 3 2.6 5.2 0.00 0.00 0.00 66 1006.4
20260506020530 75 73 0.9 7.0 0.00 0.00 0.00 65 1006.3
20260506020027 75 58 0.9 5.2 0.00 0.00 0.00 65 1006.7
20260506015525 75 276 0.9 2.6 0.00 0.00 0.00 65 1006.2
20260506015021 75 354 3.5 5.2 0.00 0.00 0.00 65 1006.6
20260506014519 75 2 0.9 6.1 0.00 0.00 0.00 65 1006.4
20260506014015 75 11 1.7 7.0 0.00 0.00 0.00 64 1006.0
20260506013513 75 30 2.6 3.5 0.00 0.00 0.00 64 1006.0
20260506013009 75 17 1.7 2.6 0.00 0.00 0.00 64 1006.0
20260506012505 75 292 2.6 3.5 0.00 0.00 0.00 64 1006.2
20260506012003 75 15 3.5 7.8 0.00 0.00 0.00 64 1006.3
20260506011500 76 308 0.9 5.2 0.00 0.00 0.00 64 1005.9
20260506010956 76 23 3.5 7.0 0.00 0.00 0.00 64 1005.7
20260506010456 77 26 3.5 7.0 0.00 0.00 0.00 63 1005.7
20260506005951 78 355 3.5 5.2 0.00 0.00 0.00 63 1005.4
20260506005449 78 15 1.7 2.6 0.00 0.00 0.00 62 1005.6
20260506004944 78 355 3.5 6.1 0.00 0.00 0.00 61 1005.7
20260506004442 78 30 1.7 3.5 0.00 0.00 0.00 61 1005.7
20260506003938 79 244 0.9 2.6 0.00 0.00 0.00 61 1005.2
20260506003435 79 35 1.7 3.5 0.00 0.00 0.00 60 1005.1
20260506002931 80 14 2.6 5.2 0.00 0.00 0.00 59 1005.1
20260506002427 81 349 0.9 3.5 0.00 0.00 0.00 58 1005.3
20260506001923 81 235 0.9 5.2 0.00 0.00 0.00 58 1005.4
20260506001420 82 7 2.6 3.5 0.00 0.00 0.00 57 1005.3
20260506000917 82 339 4.3 5.2 0.00 0.00 0.00 55 1005.1
20260506000416 83 22 1.7 2.6 0.00 0.00 0.00 55 1004.8
20260505235911 84 14 2.6 5.2 0.00 0.00 0.00 53 1004.5
20260505235410 85 34 2.6 5.2 0.00 0.00 0.00 48 1004.4
20260505234906 85 16 1.7 3.5 0.00 0.00 0.00 47 1004.5
20260505234404 85 109 0.9 6.1 0.00 0.00 0.00 48 1004.4
20260505233900 85 349 1.7 2.6 0.00 0.00 0.00 64 1004.4
20260505233358 86 16 1.7 2.6 0.00 0.00 0.00 64 1004.3
20260505232855 86 220 0.0 1.7 0.00 0.00 0.00 63 1004.2
20260505232353 86 170 0.9 3.5 0.00 0.00 0.00 63 1003.9
20260505231849 86 221 1.7 3.5 0.00 0.00 0.00 62 1004.1
20260505231347 86 145 2.6 6.1 0.00 0.00 0.00 62 1004.0
20260505230845 86 214 1.7 7.8 0.00 0.00 0.00 62 1003.7
20260505230342 86 154 0.9 3.5 0.00 0.00 0.00 62 1003.8
20260505225839 87 192 0.9 6.1 0.00 0.00 0.00 61 1003.8
20260505225336 86 135 0.9 5.2 0.00 0.00 0.00 62 1003.8
20260505224831 87 201 2.6 2.6 0.00 0.00 0.00 62 1003.7
20260505224329 88 146 2.6 3.5 0.00 0.00 0.00 58 1003.6
20260505223826 88 184 2.6 5.2 0.00 0.00 0.00 57 1003.6
20260505223323 89 163 2.6 3.5 0.00 0.00 0.00 56 1003.6
20260505222818 91 166 1.7 6.1 0.00 0.00 0.00 54 1003.6
20260505222315 90 245 2.6 3.5 0.00 0.00 0.00 48 1003.3
20260505221812 90 258 1.7 6.1 0.00 0.00 0.00 49 1003.5
20260505221309 91 270 0.9 3.5 0.00 0.00 0.00 48 1003.6
20260505220806 91 212 1.7 3.5 0.00 0.00 0.00 47 1003.6
20260505220303 91 198 2.6 7.0 0.00 0.00 0.00 48 1003.7
20260505215801 92 162 2.6 7.8 0.00 0.00 0.00 47 1003.7
20260505215258 91 237 3.5 7.0 0.00 0.00 0.00 47 1003.7
20260505214756 91 271 3.5 7.0 0.00 0.00 0.00 46 1003.5
20260505214253 92 232 3.5 6.1 0.00 0.00 0.00 45 1003.7
20260505213750 91 250 2.6 6.1 0.00 0.00 0.00 46 1003.7
20260505213248 91 215 2.6 5.2 0.00 0.00 0.00 48 1003.9
20260505212743 90 258 4.3 8.7 0.00 0.00 0.00 48 1003.9
20260505212241 90 262 3.5 6.1 0.00 0.00 0.00 48 1004.0
20260505211738 91 262 2.6 9.6 0.00 0.00 0.00 48 1003.9
20260505211235 90 260 2.6 7.8 0.00 0.00 0.00 47 1004.1
20260505210731 90 255 6.1 7.8 0.00 0.00 0.00 48 1003.9
20260505210228 91 216 3.5 7.8 0.00 0.00 0.00 48 1004.2
20260505205726 91 114 4.3 7.8 0.00 0.00 0.00 48 1004.2
20260505205224 91 213 1.7 1.7 0.00 0.00 0.00 52 1004.1
20260505204720 90 233 1.7 5.2 0.00 0.00 0.00 51 1004.2
20260505204218 89 260 2.6 6.1 0.00 0.00 0.00 54 1004.4
20260505203715 89 186 2.6 5.2 0.00 0.00 0.00 55 1004.4
20260505203212 88 239 3.5 5.2 0.00 0.00 0.00 54 1004.5
20260505202708 88 199 2.6 7.0 0.00 0.00 0.00 54 1004.5
20260505202204 88 205 3.5 5.2 0.00 0.00 0.00 55 1004.6
20260505201700 89 179 4.3 12.2 0.00 0.00 0.00 53 1004.5
20260505201158 89 177 1.7 5.2 0.00 0.00 0.00 55 1004.5
20260505200656 88 226 3.5 7.0 0.00 0.00 0.00 56 1004.6
20260505200153 88 202 5.2 7.8 0.00 0.00 0.00 54 1004.6
20260505195648 88 239 1.7 6.1 0.00 0.00 0.00 58 1004.7
20260505195146 88 168 1.7 8.7 0.00 0.00 0.00 58 1004.6
20260505194643 87 225 4.3 7.0 0.00 0.00 0.00 58 1004.5
20260505194139 86 321 1.7 7.8 0.00 0.00 0.00 60 1004.8
20260505193636 87 215 3.5 7.0 0.00 0.00 0.00 59 1004.6
20260505193133 86 304 2.6 5.2 0.00 0.00 0.00 59 1004.6
20260505192632 86 210 5.2 11.3 0.00 0.00 0.00 59 1004.7
20260505192129 86 226 3.5 8.7 0.00 0.00 0.00 60 1004.7
20260505191627 86 238 2.6 8.7 0.00 0.00 0.00 61 1004.8
20260505191125 85 227 2.6 6.1 0.00 0.00 0.00 61 1004.8
20260505190620 84 158 3.5 6.1 0.00 0.00 0.00 62 1004.8
20260505190115 84 143 3.5 11.3 0.00 0.00 0.00 62 1005.0
20260505185613 85 260 5.2 7.0 0.00 0.00 0.00 61 1004.9
20260505185109 85 124 3.5 9.6 0.00 0.00 0.00 59 1005.1
20260505184605 84 149 1.7 5.2 0.00 0.00 0.00 64 1005.1
20260505184102 84 137 3.5 7.0 0.00 0.00 0.00 63 1004.9
20260505183559 84 340 1.7 8.7 0.00 0.00 0.00 62 1005.0
20260505183057 84 343 3.5 5.2 0.00 0.00 0.00 61 1004.8
20260505182553 83 91 4.3 7.0 0.00 0.00 0.00 62 1005.0
20260505182050 83 257 6.1 8.7 0.00 0.00 0.00 62 1004.9
20260505181546 83 228 4.3 7.0 0.00 0.00 0.00 62 1005.0
20260505181044 83 201 4.3 11.3 0.00 0.00 0.00 62 1005.0
20260505180539 83 158 7.8 12.2 0.00 0.00 0.00 61 1005.1
20260505180038 83 184 3.5 13.0 0.00 0.00 0.00 63 1005.1
20260505175537 83 169 2.6 11.3 0.00 0.00 0.00 62 1005.2
20260505175035 83 150 6.1 9.6 0.00 0.00 0.00 62 1005.1
20260505174532 83 98 6.1 8.7 0.00 0.00 0.00 62 1005.1
20260505174027 83 184 5.2 7.8 0.00 0.00 0.00 63 1005.3
20260505173524 82 247 3.5 8.7 0.00 0.00 0.00 63 1005.3
20260505173021 82 224 1.7 5.2 0.00 0.00 0.00 65 1005.1
20260505172519 82 242 3.5 11.3 0.00 0.00 0.00 63 1005.2
20260505172015 82 258 3.5 7.0 0.00 0.00 0.00 65 1005.2
20260505171510 82 193 1.7 8.7 0.00 0.00 0.00 65 1005.4
20260505171008 82 241 2.6 11.3 0.00 0.00 0.00 66 1005.3
20260505170504 81 267 1.7 9.6 0.00 0.00 0.00 65 1005.4
20260505170000 81 209 3.5 11.3 0.00 0.00 0.00 65 1005.4
20260505165456 82 202 7.0 9.6 0.00 0.00 0.00 64 1005.0
20260505164951 81 187 2.6 6.1 0.00 0.00 0.00 66 1005.2
20260505164448 80 215 5.2 11.3 0.00 0.00 0.00 66 1005.2
20260505163946 80 195 1.7 7.8 0.00 0.00 0.00 66 1005.1
20260505163444 80 237 5.2 12.2 0.00 0.00 0.00 65 1005.2
20260505162944 80 348 6.1 16.5 0.00 0.00 0.00 66 1005.1
20260505162439 80 245 5.2 11.3 0.00 0.00 0.00 66 1005.1
20260505161936 80 200 2.6 13.0 0.00 0.00 0.00 67 1005.1
20260505161432 80 304 6.1 12.2 0.00 0.00 0.00 65 1004.9
20260505160930 81 137 7.8 13.0 0.00 0.00 0.00 65 1004.9
20260505160428 80 240 1.7 5.2 0.00 0.00 0.00 69 1004.8
20260505152904 78 202 2.6 6.1 0.00 0.00 0.00 72 1005.1
20260505152401 78 210 5.2 13.0 0.00 0.00 0.00 72 1004.9
20260505151901 78 142 1.7 13.0 0.00 0.00 0.00 73 1005.1
20260505151358 77 198 3.5 7.8 0.00 0.00 0.00 73 1005.1
20260505150855 77 253 4.3 9.6 0.00 0.00 0.00 74 1005.0
20260505150353 77 204 9.6 13.0 0.00 0.00 0.00 74 1005.1
20260505140322 73 188 3.5 11.3 0.00 0.00 0.00 79 1004.9
20260505130246 72 194 1.7 7.8 0.00 0.00 0.00 80 1004.9
20260505124736 72 165 0.9 6.1 0.00 0.00 0.00 81 1004.7
20260505124233 72 216 5.2 7.8 0.00 0.00 0.00 81 1004.8
20260505123729 72 172 2.6 6.1 0.00 0.00 0.00 81 1004.4
20260505123226 72 213 5.2 8.7 0.00 0.00 0.00 81 1004.3
20260505122722 72 149 7.8 11.3 0.00 0.00 0.00 81 1004.4
20260505122220 72 153 4.3 7.0 0.00 0.00 0.00 81 1004.5
20260505121716 72 198 1.7 9.6 0.00 0.00 0.00 81 1004.7
20260505121213 72 207 4.3 9.6 0.00 0.00 0.00 81 1004.5
20260505120709 72 198 1.7 12.2 0.00 0.00 0.00 81 1004.5
20260505120205 72 193 3.5 9.6 0.00 0.00 0.00 81 1004.3
20260505115704 72 150 2.6 8.7 0.00 0.00 0.00 81 1004.3
20260505115203 72 305 2.6 5.2 0.00 0.00 0.00 81 1004.4
20260505114659 72 166 3.5 7.8 0.00 0.00 0.00 81 1004.3
20260505114155 72 161 5.2 9.6 0.00 0.00 0.00 81 1004.2
20260505113652 72 171 3.5 7.8 0.00 0.00 0.00 81 1004.1
20260505113149 72 231 7.8 11.3 0.00 0.00 0.00 81 1004.0
20260505112645 72 211 4.3 8.7 0.00 0.00 0.00 81 1004.0
20260505112143 71 228 5.2 7.0 0.00 0.00 0.00 81 1004.2
20260505111642 71 246 4.3 8.7 0.00 0.00 0.00 81 1004.0
20260505111138 71 159 3.5 6.1 0.00 0.00 0.00 81 1003.8
20260505110635 71 168 5.2 8.7 0.00 0.00 0.00 81 1004.1
20260505110132 71 205 3.5 7.0 0.00 0.00 0.00 81 1003.9
20260505102108 72 162 0.9 7.8 0.00 0.00 0.00 80 1004.3
20260505101606 72 208 1.7 3.5 0.00 0.00 0.00 80 1004.3
20260505101102 72 199 7.8 12.2 0.00 0.00 0.00 80 1004.1
20260505100559 72 317 3.5 12.2 0.00 0.00 0.00 80 1004.2
20260505100056 72 127 5.2 9.6 0.00 0.00 0.00 80 1004.3
20260505095552 72 259 4.3 9.6 0.00 0.00 0.00 80 1004.5
20260505095049 72 281 4.3 11.3 0.00 0.00 0.00 80 1004.3
20260505094545 72 176 4.3 11.3 0.00 0.00 0.00 80 1004.5
20260505094041 72 194 1.7 8.7 0.00 0.00 0.00 80 1004.5
20260505093538 72 229 3.5 6.1 0.00 0.00 0.00 80 1004.4
20260505093035 72 246 5.2 13.0 0.00 0.00 0.00 80 1004.4
20260505092533 72 114 4.3 9.6 0.00 0.00 0.00 80 1004.4
20260505092031 72 216 1.7 2.6 0.00 0.00 0.00 80 1004.5
20260505091527 72 194 1.7 8.7 0.00 0.00 0.00 80 1004.5
20260505091026 72 212 3.5 8.7 0.00 0.00 0.00 80 1004.7
20260505090524 71 259 5.2 11.3 0.00 0.00 0.00 80 1004.5
20260505090021 72 163 2.6 13.9 0.00 0.00 0.00 80 1004.5
20260505085519 71 168 5.2 13.0 0.00 0.00 0.00 80 1004.5
20260505085017 71 120 2.6 8.7 0.00 0.00 0.00 80 1004.4
20260505084515 71 88 5.2 9.6 0.00 0.00 0.00 80 1004.5
20260505084012 71 228 2.6 12.2 0.00 0.00 0.00 80 1004.5
20260505083509 71 178 7.8 9.6 0.00 0.00 0.00 81 1004.6
20260505083006 71 183 4.3 9.6 0.00 0.00 0.00 80 1004.6
20260505082502 71 206 7.8 12.2 0.00 0.00 0.00 80 1004.5
20260505081959 71 209 3.5 13.0 0.00 0.00 0.00 80 1004.7
20260505081455 71 162 3.5 7.8 0.00 0.00 0.00 80 1004.8
20260505080952 71 99 4.3 12.2 0.00 0.00 0.00 80 1004.6
20260505080448 71 265 3.5 9.6 0.00 0.00 0.00 80 1004.4
20260505075944 71 184 4.3 7.8 0.00 0.00 0.00 79 1004.7
20260505075441 72 138 1.7 7.0 0.00 0.00 0.00 79 1004.8
20260505074938 72 184 4.3 13.9 0.00 0.00 0.00 79 1004.8
20260505074435 72 222 7.0 16.5 0.00 0.00 0.00 79 1004.9
20260505073932 72 236 3.5 7.8 0.00 0.00 0.00 79 1005.0
20260505073430 72 150 7.0 9.6 0.00 0.00 0.00 78 1005.2
20260505072927 72 277 3.5 11.3 0.00 0.00 0.00 78 1005.2
20260505072423 72 172 5.2 13.9 0.00 0.00 0.00 78 1005.4
20260505071919 72 197 5.2 9.6 0.00 0.00 0.00 77 1005.4
20260505071415 72 196 5.2 7.0 0.00 0.00 0.00 77 1005.3
20260505070914 72 173 2.6 14.8 0.00 0.00 0.00 77 1005.3
20260505070409 72 228 6.1 8.7 0.00 0.00 0.00 77 1005.6
20260505065905 73 247 2.6 9.6 0.00 0.00 0.00 76 1005.6
20260505065402 73 145 7.0 13.0 0.00 0.00 0.00 76 1005.8
20260505064859 73 192 4.3 8.7 0.00 0.00 0.00 76 1005.7
20260505064356 73 192 0.9 7.0 0.00 0.00 0.00 76 1005.8
20260505063855 73 189 7.0 12.2 0.00 0.00 0.00 76 1005.9
20260505063355 73 162 2.6 6.1 0.00 0.00 0.00 76 1005.8
20260505062852 73 208 1.7 7.0 0.00 0.00 0.00 75 1005.7
20260505062349 73 164 1.7 8.7 0.00 0.00 0.00 75 1005.7
20260505061846 73 150 5.2 8.7 0.00 0.00 0.00 75 1005.7
20260505061344 73 193 4.3 8.7 0.00 0.00 0.00 75 1006.2
20260505060842 72 211 1.7 9.6 0.00 0.00 0.00 75 1005.8
20260505060338 73 189 3.5 7.0 0.00 0.00 0.00 74 1006.1
20260505055834 72 185 4.3 8.7 0.00 0.00 0.00 74 1006.0
20260505055330 73 195 4.3 6.1 0.00 0.00 0.00 74 1006.1
20260505054828 73 152 0.9 6.1 0.00 0.00 0.00 74 1006.0
20260505054325 73 164 0.9 7.8 0.00 0.00 0.00 74 1006.1
20260505053823 73 181 1.7 6.1 0.00 0.00 0.00 73 1006.2
20260505053320 73 212 3.5 5.2 0.00 0.00 0.00 73 1006.2
20260505052817 73 196 4.3 6.1 0.00 0.00 0.00 73 1006.4
20260505052314 73 180 2.6 6.1 0.00 0.00 0.00 73 1006.3
20260505051811 73 218 3.5 6.1 0.00 0.00 0.00 73 1006.2
20260505051308 73 225 2.6 6.1 0.00 0.00 0.00 72 1006.4
20260505050806 73 196 3.5 8.7 0.00 0.00 0.00 72 1006.4
20260505050305 73 141 1.7 8.7 0.00 0.00 0.00 72 1006.2
20260505041734 74 116 3.5 5.2 0.00 0.00 0.00 69 1006.6
20260505041231 74 163 1.7 7.8 0.00 0.00 0.00 69 1006.6
20260505040729 74 200 2.6 9.6 0.00 0.00 0.00 68 1006.6
20260505040226 74 224 2.6 7.8 0.00 0.00 0.00 68 1006.7
20260505035723 74 204 3.5 7.0 0.00 0.00 0.00 68 1006.6
20260505035219 74 129 0.0 2.6 0.00 0.00 0.00 68 1006.5
20260505034716 74 145 0.9 3.5 0.00 0.00 0.00 67 1006.6
20260505034213 74 171 3.5 6.1 0.00 0.00 0.00 67 1006.5
20260505033709 74 224 4.3 12.2 0.00 0.00 0.00 67 1006.5
20260505033207 74 189 0.9 5.2 0.00 0.00 0.00 67 1006.6
20260505032705 74 224 4.3 6.1 0.00 0.00 0.00 67 1006.5
20260505032200 74 156 2.6 5.2 0.00 0.00 0.00 67 1006.6
20260505031658 74 147 2.6 5.2 0.00 0.00 0.00 67 1006.6
20260505031154 74 140 1.7 3.5 0.00 0.00 0.00 67 1006.7
20260505030651 75 185 3.5 5.2 0.00 0.00 0.00 67 1006.5
20260505030147 75 147 1.7 7.0 0.00 0.00 0.00 66 1006.7
20260505025643 75 161 1.7 6.1 0.00 0.00 0.00 66 1006.6
20260505025142 75 153 0.9 5.2 0.00 0.00 0.00 66 1006.5